Change the Weather History Date:

Sunday, August 10, 2014

  Actual Average Record
Temperature  
Mean Temperature 75 °F 73 °F  
Max Temperature 82 °F 84 °F 102 °F (1937)
Min Temperature 68 °F 62 °F 46 °F (1904)
Degree Days  
Heating Degree Days 0 0  
Month to date heating degree days 0 0  
Since 1 June heating degree days 26 30  
Since 1 July heating degree days 6 3  
Cooling Degree Days 10 8  
Month to date cooling degree days 81 87  
Year to date cooling degree days 590 632  
Since 1 June cooling degree days 469 568  
Growing Degree Days 25 (Base 50)    
Moisture  
Dew Point 68 °F    
Average Humidity 83    
Maximum Humidity 97    
Minimum Humidity 69    
Precipitation  
Precipitation 0.01 in 0.10 in 1.39 in (1948)
Month to date precipitation 3.59 1.00  
Year to date precipitation 29.10 18.31  
Snow  
Snow 0.00 in 0.00 in 0.00 in ()
Month to date snowfall 0.0 0.0  
Since 1 June snowfall 0.0 0.0  
Since 1 July snowfall 0.0 0.0  
Snow Depth 0.00 in    
Sea Level Pressure  
Sea Level Pressure 30.03 in    
Wind  
Wind Speed 4 mph (East)    
Max Wind Speed 13 mph    
Max Gust Speed 16 mph    
Visibility 8 miles    
Events Rain , Thunderstorm    
T = Trace of Precipitation, MM = Missing Value Source: NWS Daily Summary

Daily Weather History Graph

Daily Weather History Graph

Search for Another Location

Airport or City:

Trip Planner

Search our weather history database for the weather conditions in past years. The results will help you decide how hot, cold, wet, or windy it might be!

Date:

Astronomy

Aug. 10, 2014 Rise Set
Actual Time 6:27 AM CDT 8:33 PM CDT
Civil Twilight 5:56 AM CDT 9:04 PM CDT
Nautical Twilight 5:18 AM CDT 9:42 PM CDT
Astronomical Twilight 4:37 AM CDT 10:23 PM CDT
Moon 8:19 PM CDT (8/10) 6:22 AM CDT (8/10)
Length of Visible Light 15h 07m
Length of Day
14h 06m
Full, 100% of the Moon is Illuminated
Aug 10
Full
Aug 10
Full
Aug 17
Last Quarter
Aug 25
New
Sep 2
First Quarter

Hourly Weather History & Observations

Time (CDT) Temp. Heat Index Dew Point Humidity Pressure Visibility Wind Dir Wind Speed Gust Speed Precip Events Conditions
12:52 AM 70.0 °F - 68.0 °F 93% 30.02 in 8.0 mi SSE 5.8 mph - N/A   Overcast
1:52 AM 70.0 °F - 66.9 °F 90% 30.01 in 7.0 mi ESE 4.6 mph - N/A   Mostly Cloudy
2:52 AM 69.1 °F - 66.9 °F 93% 30.01 in 6.0 mi East 4.6 mph - N/A   Scattered Clouds
3:52 AM 69.1 °F - 66.9 °F 93% 30.00 in 6.0 mi ESE 5.8 mph - N/A   Mostly Cloudy
4:08 AM 69.1 °F - 66.9 °F 93% 30.02 in 6.0 mi East 5.8 mph - N/A   Overcast
4:24 AM 69.1 °F - 66.9 °F 93% 30.02 in 6.0 mi ESE 4.6 mph - N/A   Overcast
4:52 AM 69.1 °F - 66.9 °F 93% 30.00 in 6.0 mi ESE 4.6 mph - N/A   Mostly Cloudy
5:49 AM 68.0 °F - 66.2 °F 94% 30.02 in 5.0 mi SE 3.5 mph - N/A   Mostly Cloudy
5:52 AM 69.1 °F - 66.9 °F 93% 30.01 in 5.0 mi SE 3.5 mph - N/A   Mostly Cloudy
6:52 AM 70.0 °F - 66.9 °F 90% 30.02 in 6.0 mi Calm Calm - N/A   Overcast
7:29 AM 70.0 °F - 66.9 °F 90% 30.05 in 4.0 mi Calm Calm - N/A   Overcast
7:42 AM 70.0 °F - 66.9 °F 90% 30.05 in 4.0 mi Calm Calm - N/A   Overcast
7:52 AM 70.0 °F - 66.9 °F 90% 30.03 in 4.0 mi Calm Calm - N/A   Overcast
8:41 AM 72.0 °F - 68.0 °F 87% 30.04 in 5.0 mi SSE 3.5 mph - N/A   Mostly Cloudy
8:52 AM 71.6 °F - 68.0 °F 88% 30.04 in 5.0 mi Calm Calm - N/A   Mostly Cloudy
9:42 AM 73.0 °F - 68.0 °F 84% 30.04 in 6.0 mi WNW 4.6 mph - N/A   Haze
9:52 AM 73.9 °F - 69.1 °F 85% 30.03 in 7.0 mi WNW 4.6 mph - N/A   Overcast
10:49 AM 75.2 °F - 69.8 °F 83% 30.05 in 7.0 mi Calm Calm - N/A   Scattered Clouds
10:52 AM 75.9 °F - 69.1 °F 79% 30.03 in 8.0 mi Calm Calm - N/A   Scattered Clouds
11:30 AM 77.0 °F - 69.1 °F 76% 30.06 in 8.0 mi NNE 4.6 mph - N/A   Mostly Cloudy
11:40 AM 77.0 °F - 68.0 °F 74% 30.06 in 9.0 mi Calm Calm - N/A   Scattered Clouds
11:49 AM 78.8 °F - 69.8 °F 74% 30.06 in 10.0 mi NE 4.6 mph - N/A   Mostly Cloudy
11:52 AM 78.1 °F - 69.1 °F 74% 30.04 in 10.0 mi NE 4.6 mph - N/A   Mostly Cloudy
12:52 PM 79.0 °F - 68.0 °F 69% 30.04 in 10.0 mi Calm Calm - N/A   Overcast
1:52 PM 77.0 °F - 70.0 °F 79% 30.03 in 10.0 mi NNW 3.5 mph - 0.00 in Rain Light Rain
2:11 PM 73.9 °F - 70.0 °F 87% 30.05 in 8.0 mi ESE 6.9 mph - 0.00 in Thunderstorm Thunderstorm
2:26 PM 73.0 °F - 68.0 °F 84% 30.05 in 10.0 mi East 11.5 mph - 0.00 in Rain Light Rain
2:34 PM 73.9 °F - 69.1 °F 85% 30.05 in 10.0 mi ESE 9.2 mph - 0.00 in Thunderstorm Overcast
2:41 PM 73.9 °F - 69.1 °F 85% 30.05 in 10.0 mi ESE 10.4 mph - 0.00 in Thunderstorm Mostly Cloudy
2:52 PM 73.4 °F - 69.8 °F 88% 30.05 in 10.0 mi East 6.9 mph - N/A Thunderstorm Mostly Cloudy
2:57 PM 73.9 °F - 69.1 °F 85% 30.05 in 10.0 mi NE 9.2 mph - N/A   Mostly Cloudy
3:52 PM 78.8 °F - 69.8 °F 74% 30.04 in 10.0 mi South 5.8 mph - N/A   Clear
4:52 PM 81.0 °F 84.4 °F 70.0 °F 69% 30.00 in 10.0 mi Calm Calm - N/A   Clear
5:15 PM 80.1 °F 82.9 °F 69.1 °F 69% 30.03 in 10.0 mi Calm Calm - N/A Thunderstorm Thunderstorm
5:30 PM 77.0 °F - 68.0 °F 74% 30.03 in 10.0 mi NNE 6.9 mph - N/A   Mostly Cloudy
5:44 PM 75.0 °F - 69.1 °F 82% 30.03 in 9.0 mi SE 5.8 mph - 0.01 in Rain , Thunderstorm Light Rain
5:52 PM 75.0 °F - 69.1 °F 82% 30.01 in 10.0 mi SSE 6.9 mph - 0.01 in Thunderstorm Thunderstorm
6:10 PM 77.0 °F - 69.8 °F 78% 30.02 in 10.0 mi Calm Calm - N/A Thunderstorm Mostly Cloudy
6:34 PM 78.1 °F - 69.1 °F 74% 30.02 in 10.0 mi South 3.5 mph - N/A   Mostly Cloudy
6:52 PM 80.6 °F 83.9 °F 69.8 °F 70% 30.02 in 10.0 mi Variable 3.5 mph - N/A   Mostly Cloudy
6:59 PM 80.1 °F 82.9 °F 69.1 °F 69% 30.02 in 10.0 mi NW 4.6 mph - N/A   Clear
7:52 PM 75.9 °F - 69.1 °F 79% 30.01 in 10.0 mi North 8.1 mph - N/A   Clear
8:52 PM 75.0 °F - 70.0 °F 84% 30.02 in 10.0 mi North 5.8 mph - N/A   Partly Cloudy
9:52 PM 71.1 °F - 68.0 °F 90% 30.04 in 10.0 mi NNW 5.8 mph - N/A   Clear
10:52 PM 69.8 °F - 66.2 °F 88% 30.06 in 10.0 mi NW 5.8 mph - N/A   Clear